Regional Weather Roundup
Issued by NWS

Home | Current Version | Previous Version | Graphics & Text | Print | Product List | Glossary Off
Versions: 1 2 3 4 5 6 7 8 9 10 11 12 13 14 15 16 17 18 19 20 21 22 23 24 25 26 27 28 29 30 31 32 33 34 35 36 37 38 39 40 41 42 43 44 45 46 47 48 49 50

000
ASUS43 KDTX 182310
RWRMI
MICHIGAN HOURLY REGIONAL WEATHER ROUNDUP
NATIONAL WEATHER SERVICE DETROIT/PONTIAC MI
600 PM EST THU DEC 18 2014

NOTE: "FAIR" INDICATES FEW OR NO CLOUDS BELOW 12,000 FEET WITH NO
SIGNIFICANT WEATHER AND/OR OBSTRUCTION TO VISIBILITY.

MIZ047>049-052>055-059>063-066>070-074>076-081>083-190000-
SOUTHEAST LOWER MICHIGAN

CITY           SKY/WX    TMP DP  RH WIND       PRES   REMARKS
ADRIAN         CLOUDY    30  25  81 W8        30.18F WCI  22
ALMA           CLOUDY    29  26  89 N6        30.18S WCI  23
ANN ARBOR      CLOUDY    31  28  89 W7        30.16S WCI  24
BAD AXE        CLOUDY    26  23  88 N7        30.18S WCI  18
CARO           CLOUDY    27  23  87 N7        30.18R WCI  19
DETROIT CITY   LGT SNOW  34  27  75 W7        30.17S WCI  28
DETROIT        FLURRIES  32  28  85 W3        30.18S
FLINT          CLOUDY    31  27  85 N8        30.17R FOG     WCI  23
GROSSE ILE     CLOUDY    32  28  86 W3        30.16S
HILLSDALE      CLOUDY    29  27  94 W6        30.16S WCI  23
HOWELL         CLOUDY    30  29  94 NW5       30.16R WCI  25

CITY           SKY/WX    TMP DP  RH WIND       PRES   REMARKS
JACKSON        CLOUDY    29  26  89 W6        30.16S FOG     WCI  23
LAMBERTVILLE   CLOUDY    32  28  86 W6        30.18F WCI  26
LANSING        CLOUDY    31  28  89 NW3       30.17S
LAPEER         CLOUDY    28  27  96 N5        30.17R WCI  22
MASON          CLOUDY    29  28  93 W9        30.16S FOG     WCI  21
MONROE         CLOUDY    32  28  86 W3        30.16S
MT. CLEMENS    FLURRIES  30  30 100 NE5       30.14S WCI  25
PONTIAC        CLOUDY    30  27  88 NW10      30.14S WCI  21
PORT HOPE        N/A     28  23  81 NW6       30.17R WCI  22
PORT HURON     CLOUDY    28  27  93 N3        30.17R
TRI CITIES     CLOUDY    29  22  75 NE6       30.19S WCI  23
TROY           CLOUDY    34  28  80 W5        30.18R WCI  30
SAGINAW HB     CLOUDY    28  27  93 N7        30.19R WCI  21
$$
MIZ043>046-050>051-056>058-064>065-071>073-077>080-190000-
SOUTHWEST LOWER MICHIGAN

CITY           SKY/WX    TMP DP  RH WIND       PRES   REMARKS
BATTLE CREEK   CLOUDY    30  24  78 W10       30.18S WCI  21
BENTON HARBOR  CLOUDY    28  23  81 W13       30.22S WCI  17
BIG RAPIDS     CLOUDY    28  26  92 N5        30.17R WCI  23
COLDWATER      CLOUDY    28  26  90 W7        30.18S WCI  21
FREMONT        CLOUDY    29  24  81 N6        30.18S WCI  23
HOLLAND        FLURRIES  34  29  82 NW5       30.19R WCI  30
GRAND RAPIDS   CLOUDY    31  28  89 SW7       30.17S FOG     WCI  24
IONIA          CLOUDY    32  27  82 N3        30.16S
KALAMAZOO      CLOUDY    29  23  78 W9        30.19S WCI  20
LUDINGTON      MOCLDY    26  22  85 CALM      30.21S
MARSHALL       CLOUDY    28  25  89 W7        30.17S WCI  21
MOUNT PLEASANT CLOUDY    28  23  81 CALM      30.18S
MUSKEGON       CLOUDY    32  25  75 N6        30.19S WCI  26
SOUTH HAVEN    CLOUDY    31  28  86 W9        30.20S WCI  23
$$
MIZ016>042-190000-
NORTHERN LOWER MICHIGAN

CITY           SKY/WX    TMP DP  RH WIND       PRES   REMARKS
ALPENA         CLEAR     21  17  84 W5        30.21R WCI  15
BEAVER ISLAND  CLEAR     17  15  93 CALM      30.24S
BELLAIRE       CLEAR     23  19  81 CALM      30.22S
CADILLAC       PTCLDY    23  19  84 N3        30.15R
CHARLEVOIX     CLEAR     22  12  63 NE6       30.25S WCI  15
FRANKFORT      CLEAR     26  21  79 NE3       30.21S
GAYLORD        CLEAR     18  15  88 NE5       30.16S WCI  11
GRAYLING       CLEAR     16  14  91 CALM      30.18R
HARBOR SPRINGS CLEAR     18  13  82 CALM      30.23S
HOUGHTON LAKE  CLOUDY    25  20  81 N6        30.17R WCI  18
MANISTEE       CLEAR     27  18  69 N5        30.21S WCI  21
OSCODA         CLOUDY    24  21  85 NW8       30.20S WCI  16
PELLSTON       CLEAR     13  10  88 CALM      30.23S
ROGERS CITY    CLEAR     20  16  82 W3        30.23S
TRAVERSE CITY  MOCLDY    27  19  72 N10       30.21R WCI  17
$$
MIZ007>008-015-190000-
EASTERN UPPER MICHIGAN

CITY           SKY/WX    TMP DP  RH WIND       PRES   REMARKS
KINROSS        CLEAR     16  12  86 N3        30.22R
MACKINAC ISLAN CLEAR     21  14  75 N6        30.22S WCI  13
NEWBERRY       CLEAR     17  14  90 W3        30.22S
S. S. MARIE    CLEAR     20  11  68 NW5       30.25R WCI  13
MUNISING         N/A     29  20  69 NW6       30.25S WCI  23
$$
MIZ004>006-011>014-085-190000-
CENTRAL UPPER MICHIGAN

CITY           SKY/WX    TMP DP  RH WIND       PRES   REMARKS
MANISTIQUE     CLEAR     22  19  85 N5        30.24S WCI  16
ESCANABA       PTCLDY    27  16  63 N3        30.24S
MENOMINEE      CLEAR     27  18  69 NE3       30.24S
SAWYER-GWINN   CLEAR     21  16  79 N3        30.23S
$$
MIZ001>003-009>011-084-190000-
WESTERN UPPER MICHIGAN

CITY           SKY/WX    TMP DP  RH WIND       PRES   REMARKS
IRON MOUNTAIN  CLEAR     18  13  80 CALM      30.22R
HOUGHTON       CLEAR     23  15  71 CALM      30.25S
COPPER HARBOR    N/A     22  16  78 CALM      30.28S
IRONWOOD       CLOUDY    18  16  93 CALM      30.21S
$$

ABBREVIATIONS USED IN REMARKS
   TC - TEMPERATURE IN CELSIUS
  WCI - WIND CHILL INDEX
   HX - HEAT INDEX
  VSB - VISIBILITY




USA.gov is the U.S. government's official web portal to all federal, state and local government web resources and services.